When you browse on this site, cookies collect data to enhance your experience and personalize the content and advertising you see.
Visit our Privacy Policy to learn more. By continuing to use the site, you agree to this use of cookies and data.
  • In Germany
  • List of Countries
  • For 7 days
  • Water Temperature
  • Satellite Maps
  • Weather Map
  • Weather Widgets
  • user-avatar
    Login

    Hourly Weather Severnyy

    Today, 12 December, Wednesday

    Time Temperature Precipitation Wind Pressure Humidity
    00:00 -20°C° 0.1 mm 4 mps 655 mmHg 89%
    01:00 -22°C° 0 mm 4 mps 655 mmHg 89%
    02:00 -22°C° 0 mm 4 mps 655 mmHg 89%
    03:00 -22°C° 0 mm 3 mps 655 mmHg 90%
    04:00 -22°C° 0 mm 3 mps 656 mmHg 90%
    05:00 -23°C° 0 mm 3 mps 656 mmHg 91%
    06:00 -24°C° 0 mm 3 mps 656 mmHg 92%
    07:00 -21°C° 0 mm 1 mps 656 mmHg 95%
    08:00 -23°C° 0 mm 2 mps 657 mmHg 92%
    09:00 -20°C° 0 mm 2 mps 658 mmHg 89%
    10:00 -19°C° 0 mm 2 mps 658 mmHg 85%
    11:00 -18°C° 0 mm 2 mps 659 mmHg 82%
    12:00 -17°C° 0 mm 2 mps 659 mmHg 79%
    13:00 -17°C° 0 mm 2 mps 659 mmHg 76%
    14:00 -18°C° 0 mm 2 mps 659 mmHg 81%
    15:00 -19°C° 0 mm 2 mps 659 mmHg 85%
    16:00 -19°C° 0 mm 1 mps 659 mmHg 90%
    17:00 -19°C° 0 mm 1 mps 659 mmHg 90%
    18:00 -20°C° 0 mm 1 mps 659 mmHg 90%
    19:00 -21°C° 0 mm 1 mps 659 mmHg 91%
    20:00 -21°C° 0 mm 1 mps 659 mmHg 90%
    21:00 -21°C° 0 mm 1 mps 659 mmHg 90%
    22:00 -21°C° 0 mm 1 mps 659 mmHg 90%
    23:00 -21°C° 0 mm 1 mps 659 mmHg 89%

    Tomorrow, 13 December, Thursday

    Time Temperature Precipitation Wind Pressure Humidity
    00:00 -21°C° 0 mm 1 mps 659 mmHg 89%
    01:00 -22°C° 0 mm 1 mps 659 mmHg 89%
    02:00 -22°C° 0 mm 1 mps 658 mmHg 89%
    03:00 -22°C° 0 mm 1 mps 658 mmHg 89%
    04:00 -22°C° 0 mm 1 mps 658 mmHg 89%
    05:00 -21°C° 0 mm 1 mps 658 mmHg 89%
    06:00 -21°C° 0 mm 1 mps 657 mmHg 89%
    07:00 -21°C° 0 mm 1 mps 657 mmHg 89%
    08:00 -20°C° 0 mm 1 mps 657 mmHg 87%
    09:00 -19°C° 0 mm 1 mps 658 mmHg 85%
    10:00 -18°C° 0 mm 1 mps 658 mmHg 82%
    11:00 -17°C° 0 mm 1 mps 657 mmHg 80%
    12:00 -16°C° 0 mm 1 mps 657 mmHg 77%
    13:00 -15°C° 0 mm 1 mps 657 mmHg 75%
    14:00 -16°C° 0 mm 1 mps 656 mmHg 79%
    15:00 -17°C° 0 mm 1 mps 656 mmHg 83%
    16:00 -19°C° 0 mm 1 mps 655 mmHg 87%
    17:00 -19°C° 0 mm 1 mps 655 mmHg 87%
    18:00 -19°C° 0 mm 1 mps 655 mmHg 87%
    19:00 -20°C° 0 mm 1 mps 655 mmHg 87%
    20:00 -20°C° 0 mm 1 mps 655 mmHg 87%
    21:00 -20°C° 0 mm 1 mps 654 mmHg 87%
    22:00 -20°C° 0 mm 1 mps 654 mmHg 87%
    23:00 -20°C° 0 mm 1 mps 654 mmHg 87%

    Day after tomorrow, 14 December, Friday

    Time Temperature Precipitation Wind Pressure Humidity
    00:00 -20°C° 0 mm 1 mps 654 mmHg 87%
    01:00 -20°C° 0 mm 1 mps 654 mmHg 87%
    02:00 -20°C° 0 mm 1 mps 654 mmHg 87%
    03:00 -20°C° 0 mm 1 mps 653 mmHg 87%
    04:00 -21°C° 0 mm 1 mps 653 mmHg 87%
    05:00 -21°C° 0 mm 1 mps 653 mmHg 87%
    06:00 -21°C° 0 mm 1 mps 653 mmHg 87%
    07:00 -21°C° 0 mm 1 mps 653 mmHg 87%
    08:00 -20°C° 0 mm 1 mps 653 mmHg 85%
    09:00 -18°C° 0 mm 1 mps 654 mmHg 83%
    10:00 -17°C° 0 mm 1 mps 654 mmHg 80%
    11:00 -16°C° 0 mm 1 mps 654 mmHg 79%
    12:00 -15°C° 0 mm 1 mps 653 mmHg 77%
    13:00 -14°C° 0 mm 1 mps 653 mmHg 76%
    14:00 -15°C° 0 mm 1 mps 653 mmHg 80%
    15:00 -16°C° 0 mm 1 mps 653 mmHg 85%
    16:00 -17°C° 0 mm 1 mps 652 mmHg 89%
    17:00 -18°C° 0 mm 1 mps 652 mmHg 90%
    18:00 -18°C° 0 mm 1 mps 652 mmHg 91%
    19:00 -19°C° 0 mm 1 mps 652 mmHg 92%
    20:00 -19°C° 0 mm 1 mps 652 mmHg 93%
    21:00 -19°C° 0 mm 1 mps 652 mmHg 93%
    22:00 -19°C° 0 mm 1 mps 652 mmHg 94%
    23:00 -20°C° 0 mm 1 mps 651 mmHg 94%

    15 December, Saturday

    Time Temperature Precipitation Wind Pressure Humidity
    00:00 -20°C° 0 mm 1 mps 651 mmHg 94%
    01:00 -20°C° 0 mm 1 mps 651 mmHg 94%
    02:00 -20°C° 0 mm 1 mps 651 mmHg 94%
    03:00 -21°C° 0 mm 1 mps 650 mmHg 94%
    04:00 -21°C° 0 mm 1 mps 650 mmHg 93%
    05:00 -21°C° 0 mm 1 mps 650 mmHg 93%
    06:00 -21°C° 0 mm 1 mps 650 mmHg 92%
    07:00 -21°C° 0 mm 1 mps 650 mmHg 92%
    08:00 -19°C° 0 mm 1 mps 651 mmHg 89%
    09:00 -20°C° 0 mm 2 mps 651 mmHg 87%
    10:00 -19°C° 0 mm 2 mps 651 mmHg 84%
    11:00 -18°C° 0.1 mm 2 mps 651 mmHg 83%
    12:00 -17°C° 0.1 mm 2 mps 651 mmHg 81%
    13:00 -16°C° 0.1 mm 2 mps 651 mmHg 80%
    14:00 -17°C° 0.1 mm 2 mps 651 mmHg 84%
    15:00 -18°C° 0.1 mm 2 mps 651 mmHg 87%
    16:00 -18°C° 0.1 mm 2 mps 651 mmHg 90%
    17:00 -18°C° 0.1 mm 2 mps 651 mmHg 90%
    18:00 -18°C° 0.1 mm 2 mps 652 mmHg 91%
    19:00 -18°C° 0.1 mm 2 mps 652 mmHg 91%
    20:00 -19°C° 0.1 mm 3 mps 652 mmHg 91%
    21:00 -19°C° 0.1 mm 3 mps 652 mmHg 91%
    22:00 -19°C° 0.1 mm 3 mps 652 mmHg 91%
    23:00 -19°C° 0 mm 3 mps 652 mmHg 92%

    16 December, Sunday

    Time Temperature Precipitation Wind Pressure Humidity
    00:00 -19°C° 0 mm 2 mps 652 mmHg 92%
    01:00 -20°C° 0 mm 2 mps 651 mmHg 93%
    02:00 -20°C° 0 mm 2 mps 651 mmHg 93%
    03:00 -20°C° 0 mm 2 mps 651 mmHg 94%
    04:00 -20°C° 0 mm 2 mps 651 mmHg 94%
    05:00 -21°C° 0.1 mm 2 mps 651 mmHg 94%
    06:00 -21°C° 0.1 mm 2 mps 650 mmHg 94%
    07:00 -21°C° 0.1 mm 2 mps 650 mmHg 95%
    08:00 -20°C° 0 mm 2 mps 650 mmHg 92%
    09:00 -19°C° 0 mm 2 mps 650 mmHg 89%
    10:00 -19°C° 0 mm 2 mps 650 mmHg 86%
    11:00 -18°C° 0 mm 2 mps 649 mmHg 84%
    12:00 -17°C° 0 mm 2 mps 649 mmHg 81%
    13:00 -17°C° 0 mm 3 mps 648 mmHg 78%
    14:00 -16°C° 0.1 mm 2 mps 648 mmHg 82%
    15:00 -17°C° 0.1 mm 2 mps 647 mmHg 86%
    16:00 -17°C° 0.1 mm 2 mps 647 mmHg 89%
    17:00 -17°C° 0.1 mm 2 mps 647 mmHg 89%
    18:00 -17°C° 0.1 mm 2 mps 647 mmHg 89%
    19:00 -17°C° 0.1 mm 3 mps 647 mmHg 89%
    20:00 -17°C° 0.1 mm 3 mps 647 mmHg 89%
    21:00 -16°C° 0.1 mm 3 mps 647 mmHg 89%
    22:00 -17°C° 0.1 mm 4 mps 647 mmHg 88%
    23:00 -17°C° 0.1 mm 4 mps 647 mmHg 88%

    17 December, Monday

    Time Temperature Precipitation Wind Pressure Humidity
    00:00 -16°C° 0.1 mm 4 mps 647 mmHg 88%
    01:00 -16°C° 0.1 mm 4 mps 647 mmHg 89%
    02:00 -17°C° 0.1 mm 5 mps 648 mmHg 88%
    03:00 -17°C° 0.1 mm 5 mps 648 mmHg 87%
    04:00 -17°C° 0.1 mm 5 mps 648 mmHg 87%
    05:00 -17°C° 0.1 mm 5 mps 648 mmHg 87%
    06:00 -17°C° 0.1 mm 4 mps 649 mmHg 87%
    07:00 -17°C° 0.1 mm 4 mps 649 mmHg 87%
    08:00 -17°C° 0 mm 4 mps 649 mmHg 84%
    09:00 -18°C° 0 mm 5 mps 650 mmHg 82%
    10:00 -18°C° 0 mm 5 mps 650 mmHg 79%
    11:00 -17°C° 0 mm 4 mps 650 mmHg 78%
    12:00 -17°C° 0 mm 4 mps 650 mmHg 76%
    13:00 -17°C° 0 mm 4 mps 650 mmHg 75%
    14:00 -17°C° 0 mm 3 mps 649 mmHg 79%
    15:00 -18°C° 0 mm 2 mps 649 mmHg 84%
    16:00 -17°C° 0 mm 1 mps 649 mmHg 89%
    17:00 -18°C° 0 mm 1 mps 649 mmHg 90%
    18:00 -19°C° 0 mm 1 mps 649 mmHg 91%
    19:00 -19°C° 0 mm 1 mps 649 mmHg 92%
    20:00 -19°C° 0 mm 1 mps 649 mmHg 92%
    21:00 -20°C° 0 mm 1 mps 649 mmHg 92%
    22:00 -20°C° 0 mm 1 mps 648 mmHg 92%
    23:00 -19°C° 0 mm 1 mps 649 mmHg 93%
    Show more